| time (UTC) | temp F | wind direction | speed MPH | gust MPH | rain 1hr in | rain 24hr in | rain mn in | humidity % | barometer mb |
| 20260507014602 | 53 | 321 | 5.0 | 8.0 | 0.00 | 0.00 | 0.00 | 92 | 1021.3 |
| 20260507014058 | 53 | 317 | 5.0 | 8.0 | 0.00 | 0.00 | 0.00 | 92 | 1021.3 |
| 20260507013557 | 53 | 315 | 5.0 | 6.0 | 0.00 | 0.00 | 0.00 | 92 | 1021.3 |
| 20260507013058 | 53 | 315 | 4.0 | 5.0 | 0.00 | 0.00 | 0.00 | 92 | 1021.3 |
| 20260507012602 | 53 | 315 | 4.0 | 5.0 | 0.00 | 0.00 | 0.00 | 92 | 1021.4 |
| 20260507012058 | 54 | 315 | 4.0 | 5.0 | 0.00 | 0.00 | 0.00 | 92 | 1021.4 |
| 20260507011558 | 54 | 315 | 3.0 | 4.0 | 0.00 | 0.00 | 0.00 | 92 | 1021.4 |
| 20260507011058 | 54 | 315 | 3.0 | 5.0 | 0.00 | 0.00 | 0.00 | 92 | 1021.4 |
| 20260507010558 | 54 | 315 | 3.0 | 5.0 | 0.00 | 0.00 | 0.00 | 92 | 1021.5 |
| 20260507010110 | 53 | 315 | 4.0 | 6.0 | 0.00 | 0.00 | 0.00 | 92 | 1021.5 |
| 20260507005558 | 54 | 315 | 4.0 | 6.0 | 0.00 | 0.00 | 0.00 | 92 | 1021.5 |
| 20260507005057 | 53 | 314 | 4.0 | 6.0 | 0.00 | 0.00 | 0.00 | 92 | 1021.5 |
| 20260507004557 | 54 | 313 | 4.0 | 6.0 | 0.00 | 0.00 | 0.00 | 92 | 1021.5 |
| 20260507004056 | 53 | 307 | 4.0 | 5.0 | 0.00 | 0.00 | 0.00 | 92 | 1021.5 |
| 20260507003557 | 53 | 302 | 4.0 | 6.0 | 0.00 | 0.00 | 0.00 | 92 | 1021.6 |
| 20260507003056 | 53 | 300 | 4.0 | 6.0 | 0.00 | 0.00 | 0.00 | 92 | 1021.5 |
| 20260507002556 | 53 | 300 | 4.0 | 5.0 | 0.00 | 0.00 | 0.00 | 92 | 1021.6 |
| 20260507002057 | 53 | 298 | 4.0 | 7.0 | 0.00 | 0.00 | 0.00 | 92 | 1021.6 |
| 20260507001603 | 53 | 298 | 4.0 | 7.0 | 0.00 | 0.00 | 0.00 | 92 | 1021.6 |
| 20260507001056 | 54 | 303 | 4.0 | 6.0 | 0.00 | 0.00 | 0.00 | 92 | 1021.6 |
| 20260507000559 | 53 | 304 | 5.0 | 8.0 | 0.00 | 0.00 | 0.00 | 92 | 1021.6 |
| 20260507000058 | 53 | 304 | 5.0 | 8.0 | 0.00 | 0.00 | 0.00 | 92 | 1021.6 |
| 20260506235556 | 53 | 302 | 5.0 | 8.0 | 0.00 | 0.00 | 0.00 | 92 | 1021.7 |
| 20260506235057 | 53 | 300 | 6.0 | 8.0 | 0.00 | 0.00 | 0.00 | 92 | 1021.7 |
| 20260506234559 | 53 | 298 | 6.0 | 8.0 | 0.00 | 0.00 | 0.00 | 92 | 1021.7 |
| 20260506234055 | 53 | 297 | 5.0 | 8.0 | 0.00 | 0.00 | 0.00 | 92 | 1021.7 |
| 20260506233556 | 53 | 300 | 6.0 | 8.0 | 0.00 | 0.00 | 0.00 | 92 | 1021.7 |
| 20260506233055 | 53 | 296 | 7.0 | 9.0 | 0.00 | 0.00 | 0.00 | 92 | 1021.8 |
| 20260506232554 | 53 | 295 | 7.0 | 9.0 | 0.00 | 0.00 | 0.00 | 92 | 1021.7 |
| 20260506232054 | 53 | 292 | 8.0 | 10.0 | 0.00 | 0.00 | 0.00 | 91 | 1021.8 |
| 20260506231608 | 53 | 302 | 8.0 | 10.0 | 0.00 | 0.00 | 0.00 | 91 | 1021.8 |
| 20260506231054 | 54 | 296 | 8.0 | 9.0 | 0.00 | 0.00 | 0.00 | 91 | 1021.8 |
| 20260506230553 | 54 | 284 | 7.0 | 9.0 | 0.00 | 0.00 | 0.00 | 91 | 1021.8 |
| 20260506230109 | 54 | 287 | 7.0 | 9.0 | 0.00 | 0.00 | 0.00 | 91 | 1021.8 |
| 20260506225554 | 54 | 304 | 7.0 | 10.0 | 0.00 | 0.00 | 0.00 | 91 | 1021.9 |
| 20260506225054 | 54 | 296 | 8.0 | 10.0 | 0.00 | 0.00 | 0.00 | 91 | 1021.9 |
| 20260506224554 | 54 | 303 | 7.0 | 8.0 | 0.00 | 0.00 | 0.00 | 91 | 1022.0 |
| 20260506224053 | 54 | 302 | 6.0 | 8.0 | 0.00 | 0.00 | 0.00 | 91 | 1022.0 |
| 20260506223553 | 54 | 307 | 7.0 | 8.0 | 0.00 | 0.00 | 0.00 | 90 | 1022.1 |
| 20260506223055 | 54 | 298 | 7.0 | 9.0 | 0.00 | 0.00 | 0.00 | 90 | 1022.1 |
| 20260506222553 | 54 | 304 | 6.0 | 9.0 | 0.00 | 0.00 | 0.00 | 90 | 1022.1 |
| 20260506222055 | 54 | 305 | 7.0 | 10.0 | 0.00 | 0.00 | 0.00 | 90 | 1022.1 |
| 20260506221610 | 54 | 306 | 8.0 | 10.0 | 0.00 | 0.00 | 0.00 | 90 | 1022.1 |
| 20260506221051 | 54 | 309 | 7.0 | 9.0 | 0.00 | 0.00 | 0.00 | 90 | 1022.1 |
| 20260506220551 | 54 | 292 | 7.0 | 9.0 | 0.00 | 0.00 | 0.00 | 90 | 1022.0 |
| 20260506220105 | 54 | 292 | 7.0 | 9.0 | 0.00 | 0.00 | 0.00 | 90 | 1022.0 |
| 20260506215550 | 54 | 296 | 7.0 | 10.0 | 0.00 | 0.00 | 0.00 | 89 | 1022.0 |
| 20260506215050 | 54 | 300 | 8.0 | 10.0 | 0.00 | 0.00 | 0.00 | 89 | 1022.0 |
| 20260506214551 | 54 | 306 | 8.0 | 10.0 | 0.00 | 0.00 | 0.00 | 89 | 1021.9 |
| 20260506214049 | 54 | 304 | 8.0 | 10.0 | 0.00 | 0.00 | 0.00 | 89 | 1021.8 |
| 20260506213548 | 55 | 297 | 7.0 | 8.0 | 0.00 | 0.00 | 0.00 | 88 | 1021.9 |
| 20260506213104 | 55 | 299 | 7.0 | 9.0 | 0.00 | 0.00 | 0.00 | 88 | 1021.9 |
| 20260506212548 | 55 | 283 | 7.0 | 9.0 | 0.00 | 0.00 | 0.00 | 89 | 1021.9 |
| 20260506212049 | 55 | 295 | 6.0 | 8.0 | 0.00 | 0.00 | 0.00 | 88 | 1021.8 |
| 20260506211548 | 55 | 290 | 6.0 | 8.0 | 0.00 | 0.00 | 0.00 | 88 | 1021.9 |
| 20260506211048 | 55 | 300 | 5.0 | 8.0 | 0.00 | 0.00 | 0.00 | 88 | 1021.8 |
| 20260506210548 | 55 | 300 | 6.0 | 9.0 | 0.00 | 0.00 | 0.00 | 88 | 1021.9 |
| 20260506210055 | 55 | 296 | 7.0 | 9.0 | 0.00 | 0.00 | 0.00 | 87 | 1021.8 |
| 20260506205547 | 55 | 296 | 7.0 | 8.0 | 0.00 | 0.00 | 0.00 | 86 | 1021.9 |
| 20260506205049 | 56 | 294 | 6.0 | 8.0 | 0.00 | 0.00 | 0.00 | 86 | 1021.8 |
| 20260506204547 | 57 | 284 | 6.0 | 8.0 | 0.00 | 0.00 | 0.00 | 86 | 1021.8 |
| 20260506204045 | 57 | 276 | 4.0 | 7.0 | 0.00 | 0.00 | 0.00 | 87 | 1021.7 |
| 20260506203547 | 56 | 269 | 2.0 | 8.0 | 0.00 | 0.00 | 0.00 | 87 | 1021.7 |
| 20260506203045 | 56 | 267 | 6.0 | 8.0 | 0.00 | 0.00 | 0.00 | 87 | 1021.7 |
| 20260506202545 | 56 | 275 | 6.0 | 8.0 | 0.00 | 0.00 | 0.00 | 87 | 1021.6 |
| 20260506202045 | 56 | 288 | 5.0 | 7.0 | 0.00 | 0.00 | 0.00 | 87 | 1021.6 |
| 20260506201548 | 56 | 279 | 4.0 | 7.0 | 0.00 | 0.00 | 0.00 | 86 | 1021.6 |
| 20260506201048 | 56 | 284 | 5.0 | 7.0 | 0.00 | 0.00 | 0.00 | 87 | 1021.6 |
| 20260506200546 | 56 | 284 | 6.0 | 7.0 | 0.00 | 0.00 | 0.00 | 86 | 1021.6 |
| 20260506200044 | 57 | 275 | 5.0 | 7.0 | 0.00 | 0.00 | 0.00 | 87 | 1021.7 |
| 20260506195548 | 56 | 266 | 3.0 | 6.0 | 0.00 | 0.00 | 0.00 | 88 | 1021.7 |
| 20260506195042 | 56 | 269 | 2.0 | 4.0 | 0.00 | 0.00 | 0.00 | 88 | 1021.7 |
| 20260506194541 | 56 | 269 | 1.0 | 6.0 | 0.00 | 0.00 | 0.00 | 88 | 1021.7 |
| 20260506194041 | 55 | 273 | 2.0 | 6.0 | 0.00 | 0.00 | 0.00 | 87 | 1021.7 |
| 20260506193540 | 55 | 272 | 3.0 | 6.0 | 0.00 | 0.00 | 0.00 | 88 | 1021.7 |
| 20260506193040 | 55 | 272 | 3.0 | 7.0 | 0.00 | 0.00 | 0.00 | 88 | 1021.7 |
| 20260506192539 | 55 | 274 | 4.0 | 7.0 | 0.00 | 0.00 | 0.00 | 88 | 1021.7 |
| 20260506192039 | 55 | 276 | 4.0 | 8.0 | 0.00 | 0.00 | 0.00 | 88 | 1021.6 |
| 20260506191539 | 55 | 273 | 4.0 | 8.0 | 0.00 | 0.00 | 0.00 | 89 | 1021.6 |
| 20260506191039 | 55 | 276 | 6.0 | 8.0 | 0.00 | 0.00 | 0.00 | 88 | 1021.6 |
| 20260506190542 | 55 | 281 | 6.0 | 8.0 | 0.00 | 0.00 | 0.00 | 88 | 1021.6 |
| 20260506190040 | 54 | 294 | 6.0 | 8.0 | 0.00 | 0.00 | 0.00 | 88 | 1021.7 |
| 20260506185538 | 54 | 296 | 6.0 | 9.0 | 0.00 | 0.00 | 0.00 | 88 | 1021.6 |
| 20260506185038 | 54 | 296 | 7.0 | 10.0 | 0.00 | 0.00 | 0.00 | 87 | 1021.7 |
| 20260506184542 | 55 | 286 | 7.0 | 10.0 | 0.00 | 0.00 | 0.00 | 88 | 1021.6 |
| 20260506184037 | 54 | 302 | 6.0 | 8.0 | 0.00 | 0.00 | 0.00 | 88 | 1021.5 |
| 20260506183539 | 55 | 290 | 5.0 | 8.0 | 0.00 | 0.00 | 0.00 | 87 | 1021.5 |
| 20260506183038 | 55 | 288 | 6.0 | 9.0 | 0.00 | 0.00 | 0.00 | 87 | 1021.5 |
| 20260506182536 | 55 | 291 | 6.0 | 9.0 | 0.00 | 0.00 | 0.00 | 87 | 1021.5 |
| 20260506182036 | 55 | 278 | 6.0 | 8.0 | 0.00 | 0.00 | 0.00 | 87 | 1021.5 |
| 20260506181538 | 55 | 275 | 6.0 | 8.0 | 0.00 | 0.00 | 0.00 | 87 | 1021.4 |
| 20260506181035 | 55 | 265 | 0.0 | 1.0 | 0.00 | 0.00 | 0.00 | 87 | 1021.3 |
| 20260506180535 | 56 | 262 | 0.0 | 2.0 | 0.00 | 0.00 | 0.00 | 87 | 1021.3 |
| 20260506180039 | 55 | 250 | 0.0 | 4.0 | 0.00 | 0.00 | 0.00 | 88 | 1021.3 |
| 20260506175532 | 55 | 248 | 0.0 | 4.0 | 0.00 | 0.00 | 0.00 | 88 | 1021.2 |
| 20260506175032 | 55 | 244 | 2.0 | 4.0 | 0.00 | 0.00 | 0.00 | 87 | 1021.1 |
| 20260506174535 | 55 | 277 | 0.0 | 3.0 | 0.00 | 0.00 | 0.00 | 88 | 1021.0 |
| 20260506174031 | 55 | 200 | 0.0 | 4.0 | 0.00 | 0.00 | 0.00 | 88 | 1021.1 |
| 20260506173531 | 55 | 207 | 1.0 | 4.0 | 0.00 | 0.00 | 0.00 | 88 | 1020.9 |
| 20260506173031 | 55 | 206 | 1.0 | 4.0 | 0.00 | 0.00 | 0.00 | 87 | 1020.9 |
| 20260506172529 | 55 | 213 | 0.0 | 3.0 | 0.00 | 0.00 | 0.00 | 88 | 1020.9 |
| 20260506172033 | 55 | 209 | 0.0 | 5.0 | 0.00 | 0.00 | 0.00 | 88 | 1020.9 |
| 20260506171539 | 55 | 207 | 1.0 | 5.0 | 0.00 | 0.00 | 0.00 | 88 | 1020.8 |
| 20260506171029 | 55 | 221 | 1.0 | 4.0 | 0.00 | 0.00 | 0.00 | 88 | 1020.9 |
| 20260506170530 | 55 | 286 | 0.0 | 2.0 | 0.00 | 0.00 | 0.00 | 88 | 1020.8 |
| 20260506170027 | 55 | 284 | 0.0 | 2.0 | 0.00 | 0.00 | 0.00 | 88 | 1020.8 |
| 20260506165530 | 55 | 259 | 0.0 | 4.0 | 0.00 | 0.00 | 0.00 | 89 | 1020.7 |
| 20260506165029 | 55 | 259 | 1.0 | 4.0 | 0.00 | 0.00 | 0.00 | 88 | 1020.7 |
| 20260506164526 | 55 | 286 | 0.0 | 2.0 | 0.00 | 0.00 | 0.00 | 88 | 1020.7 |
| 20260506164025 | 55 | 286 | 0.0 | 2.0 | 0.00 | 0.00 | 0.00 | 88 | 1020.8 |
| 20260506163526 | 55 | 279 | 0.0 | 2.0 | 0.00 | 0.00 | 0.00 | 89 | 1020.7 |
| 20260506163025 | 55 | 281 | 0.0 | 1.0 | 0.00 | 0.00 | 0.00 | 89 | 1020.7 |
| 20260506162527 | 54 | 279 | 0.0 | 1.0 | 0.00 | 0.00 | 0.00 | 89 | 1020.6 |
| 20260506162024 | 54 | 278 | 0.0 | 1.0 | 0.00 | 0.00 | 0.00 | 89 | 1020.7 |
| 20260506161525 | 54 | 278 | 0.0 | 2.0 | 0.00 | 0.00 | 0.00 | 89 | 1020.6 |
| 20260506161023 | 54 | 268 | 0.0 | 2.0 | 0.00 | 0.00 | 0.00 | 89 | 1020.5 |
| 20260506160522 | 54 | 253 | 0.0 | 6.0 | 0.00 | 0.00 | 0.00 | 89 | 1020.6 |
| 20260506160022 | 54 | 207 | 2.0 | 6.0 | 0.00 | 0.00 | 0.00 | 89 | 1020.4 |
| 20260506155523 | 54 | 278 | 1.0 | 4.0 | 0.00 | 0.00 | 0.00 | 89 | 1020.6 |
| 20260506155022 | 54 | 298 | 0.0 | 4.0 | 0.00 | 0.00 | 0.00 | 90 | 1020.5 |
| 20260506154522 | 53 | 304 | 2.0 | 4.0 | 0.00 | 0.00 | 0.00 | 89 | 1020.5 |
| 20260506154022 | 54 | 305 | 2.0 | 3.0 | 0.00 | 0.00 | 0.00 | 89 | 1020.4 |
| 20260506153520 | 54 | 305 | 0.0 | 3.0 | 0.00 | 0.00 | 0.00 | 89 | 1020.3 |
| 20260506153020 | 54 | 305 | 1.0 | 4.0 | 0.00 | 0.00 | 0.00 | 89 | 1020.2 |
| 20260506152520 | 54 | 306 | 2.0 | 4.0 | 0.00 | 0.00 | 0.00 | 89 | 1020.3 |
| 20260506152018 | 54 | 306 | 1.0 | 3.0 | 0.00 | 0.00 | 0.00 | 90 | 1020.1 |
| 20260506151523 | 54 | 306 | 0.0 | 0.0 | 0.00 | 0.00 | 0.00 | 90 | 1020.0 |
| 20260506151018 | 54 | 306 | 0.0 | 1.0 | 0.00 | 0.00 | 0.00 | 90 | 1019.9 |
| 20260506150518 | 54 | 306 | 0.0 | 5.0 | 0.00 | 0.00 | 0.00 | 90 | 1019.9 |
| 20260506150018 | 53 | 306 | 0.0 | 5.0 | 0.00 | 0.00 | 0.00 | 90 | 1019.9 |
| 20260506145521 | 53 | 319 | 0.0 | 4.0 | 0.00 | 0.00 | 0.00 | 89 | 1019.9 |
| 20260506145017 | 53 | 60 | 0.0 | 3.0 | 0.00 | 0.00 | 0.00 | 89 | 1019.7 |
| 20260506144517 | 53 | 57 | 0.0 | 3.0 | 0.00 | 0.00 | 0.00 | 90 | 1019.6 |
| 20260506144020 | 53 | 50 | 1.0 | 3.0 | 0.00 | 0.00 | 0.00 | 90 | 1019.7 |
| 20260506143516 | 53 | 311 | 0.0 | 1.0 | 0.00 | 0.00 | 0.00 | 90 | 1019.9 |
| 20260506143018 | 53 | 311 | 0.0 | 4.0 | 0.00 | 0.00 | 0.00 | 90 | 1020.0 |
| 20260506142516 | 53 | 311 | 1.0 | 4.0 | 0.00 | 0.00 | 0.00 | 89 | 1020.0 |
| 20260506142015 | 53 | 311 | 3.0 | 4.0 | 0.00 | 0.00 | 0.00 | 89 | 1020.1 |
| 20260506141517 | 53 | 311 | 2.0 | 5.0 | 0.00 | 0.00 | 0.00 | 89 | 1020.0 |
| 20260506141015 | 53 | 311 | 1.0 | 6.0 | 0.00 | 0.00 | 0.00 | 90 | 1020.1 |
| 20260506140515 | 53 | 311 | 4.0 | 8.0 | 0.00 | 0.00 | 0.00 | 89 | 1020.0 |
| 20260506140019 | 53 | 311 | 5.0 | 9.0 | 0.00 | 0.00 | 0.00 | 89 | 1020.0 |
| 20260506135515 | 53 | 313 | 8.0 | 9.0 | 0.00 | 0.00 | 0.00 | 89 | 1020.0 |
| 20260506135013 | 53 | 314 | 5.0 | 8.0 | 0.00 | 0.00 | 0.00 | 90 | 1020.0 |
| 20260506134513 | 53 | 313 | 4.0 | 6.0 | 0.00 | 0.00 | 0.00 | 89 | 1019.8 |
| 20260506134011 | 53 | 235 | 2.0 | 3.0 | 0.00 | 0.00 | 0.00 | 89 | 1019.7 |
| 20260506133510 | 53 | 234 | 0.0 | 0.0 | 0.00 | 0.00 | 0.00 | 89 | 1019.6 |
| 20260506133014 | 53 | 234 | 0.0 | 0.0 | 0.00 | 0.00 | 0.00 | 89 | 1019.5 |
| 20260506132513 | 53 | 234 | 0.0 | 0.0 | 0.00 | 0.00 | 0.00 | 89 | 1019.6 |
| 20260506132010 | 53 | 234 | 0.0 | 0.0 | 0.00 | 0.00 | 0.00 | 89 | 1019.5 |
| 20260506131510 | 53 | 234 | 0.0 | 0.0 | 0.00 | 0.00 | 0.00 | 89 | 1019.4 |
| 20260506131009 | 53 | 234 | 0.0 | 3.0 | 0.00 | 0.00 | 0.00 | 89 | 1019.5 |
| 20260506130509 | 53 | 234 | 0.0 | 3.0 | 0.00 | 0.00 | 0.00 | 89 | 1019.5 |
| 20260506130012 | 53 | 184 | 0.0 | 1.0 | 0.00 | 0.01 | 0.00 | 89 | 1019.5 |
| 20260506125508 | 53 | 181 | 0.0 | 0.0 | 0.00 | 0.01 | 0.00 | 89 | 1019.5 |
| 20260506125012 | 53 | 171 | 0.0 | 0.0 | 0.00 | 0.01 | 0.00 | 89 | 1019.4 |
| 20260506124508 | 53 | 171 | 0.0 | 0.0 | 0.00 | 0.01 | 0.00 | 89 | 1019.3 |
| 20260506124006 | 53 | 171 | 0.0 | 0.0 | 0.00 | 0.01 | 0.00 | 89 | 1019.2 |
| 20260506123505 | 53 | 171 | 0.0 | 0.0 | 0.00 | 0.01 | 0.00 | 89 | 1019.1 |
| 20260506123007 | 53 | 171 | 0.0 | 0.0 | 0.00 | 0.01 | 0.00 | 89 | 1019.1 |
| 20260506122504 | 53 | 171 | 0.0 | 0.0 | 0.00 | 0.01 | 0.00 | 89 | 1019.1 |
| 20260506122007 | 53 | 171 | 0.0 | 4.0 | 0.00 | 0.01 | 0.00 | 89 | 1019.0 |
| 20260506121505 | 53 | 171 | 0.0 | 6.0 | 0.00 | 0.01 | 0.00 | 88 | 1019.0 |
| 20260506121003 | 53 | 169 | 4.0 | 6.0 | 0.00 | 0.01 | 0.00 | 88 | 1019.0 |
| 20260506120503 | 53 | 260 | 0.0 | 0.0 | 0.00 | 0.01 | 0.00 | 89 | 1019.0 |
| 20260506120003 | 53 | 260 | 0.0 | 1.0 | 0.00 | 0.01 | 0.00 | 89 | 1019.0 |
| 20260506115503 | 53 | 260 | 0.0 | 1.0 | 0.00 | 0.01 | 0.00 | 89 | 1019.0 |
| 20260506115002 | 53 | 260 | 0.0 | 0.0 | 0.00 | 0.01 | 0.00 | 89 | 1019.0 |
| 20260506114503 | 53 | 260 | 0.0 | 3.0 | 0.00 | 0.01 | 0.00 | 89 | 1018.9 |
| 20260506114003 | 53 | 260 | 0.0 | 3.0 | 0.00 | 0.01 | 0.00 | 89 | 1018.9 |
| 20260506113503 | 53 | 260 | 0.0 | 6.0 | 0.00 | 0.01 | 0.00 | 89 | 1018.9 |
| 20260506113001 | 53 | 258 | 1.0 | 6.0 | 0.00 | 0.01 | 0.00 | 89 | 1019.0 |
| 20260506112601 | 53 | 275 | 2.0 | 4.0 | 0.00 | 0.01 | 0.00 | 89 | 1018.9 |
| 20260506112100 | 54 | 291 | 0.0 | 1.0 | 0.00 | 0.01 | 0.00 | 89 | 1018.9 |
| 20260506111600 | 54 | 296 | 0.0 | 0.0 | 0.00 | 0.01 | 0.00 | 89 | 1018.8 |
| 20260506111101 | 54 | 296 | 0.0 | 0.0 | 0.00 | 0.01 | 0.00 | 89 | 1018.9 |
| 20260506110600 | 54 | 296 | 0.0 | 0.0 | 0.00 | 0.01 | 0.00 | 89 | 1018.9 |
| 20260506110100 | 53 | 296 | 0.0 | 0.0 | 0.00 | 0.01 | 0.00 | 89 | 1018.9 |
| 20260506105559 | 53 | 296 | 0.0 | 1.0 | 0.00 | 0.01 | 0.00 | 89 | 1018.8 |
| 20260506105104 | 53 | 296 | 0.0 | 8.0 | 0.00 | 0.01 | 0.00 | 89 | 1018.9 |
| 20260506104606 | 53 | 296 | 1.0 | 9.0 | 0.00 | 0.01 | 0.00 | 89 | 1018.8 |
| 20260506104101 | 53 | 302 | 7.0 | 9.0 | 0.00 | 0.01 | 0.00 | 89 | 1018.8 |
| 20260506103556 | 54 | 276 | 2.0 | 4.0 | 0.00 | 0.01 | 0.00 | 90 | 1018.7 |
| 20260506103059 | 54 | 275 | 2.0 | 4.0 | 0.00 | 0.01 | 0.00 | 90 | 1018.7 |
| 20260506102557 | 53 | 275 | 3.0 | 7.0 | 0.00 | 0.01 | 0.00 | 90 | 1018.6 |
| 20260506102055 | 53 | 295 | 2.0 | 8.0 | 0.00 | 0.01 | 0.00 | 89 | 1018.6 |
| 20260506101555 | 53 | 288 | 5.0 | 8.0 | 0.00 | 0.01 | 0.00 | 90 | 1018.5 |
| 20260506101054 | 53 | 271 | 5.0 | 8.0 | 0.00 | 0.01 | 0.00 | 90 | 1018.4 |
| 20260506100554 | 54 | 270 | 5.0 | 9.0 | 0.00 | 0.01 | 0.00 | 90 | 1018.4 |
| 20260506100108 | 53 | 270 | 6.0 | 9.0 | 0.00 | 0.01 | 0.00 | 90 | 1018.4 |
| 20260506095553 | 54 | 288 | 7.0 | 10.0 | 0.00 | 0.01 | 0.00 | 90 | 1018.4 |
| 20260506095054 | 54 | 275 | 8.0 | 10.0 | 0.00 | 0.01 | 0.00 | 90 | 1018.4 |
| 20260506094552 | 54 | 273 | 6.0 | 10.0 | 0.00 | 0.01 | 0.00 | 91 | 1018.3 |
| 20260506094050 | 53 | 278 | 7.0 | 11.0 | 0.00 | 0.01 | 0.00 | 91 | 1018.2 |
| 20260506093550 | 53 | 278 | 9.0 | 11.0 | 0.00 | 0.01 | 0.00 | 91 | 1018.2 |
| 20260506093049 | 53 | 286 | 7.0 | 10.0 | 0.00 | 0.01 | 0.00 | 91 | 1018.1 |
| 20260506092549 | 53 | 273 | 7.0 | 9.0 | 0.00 | 0.01 | 0.00 | 91 | 1018.1 |
| 20260506092048 | 53 | 275 | 6.0 | 9.0 | 0.00 | 0.01 | 0.00 | 91 | 1018.2 |
| 20260506091552 | 54 | 282 | 6.0 | 8.0 | 0.00 | 0.01 | 0.00 | 91 | 1018.1 |
| 20260506091046 | 54 | 78 | 0.0 | 0.0 | 0.00 | 0.01 | 0.00 | 91 | 1018.1 |
| 20260506090545 | 54 | 78 | 0.0 | 0.0 | 0.00 | 0.01 | 0.00 | 91 | 1018.1 |
| 20260506090044 | 54 | 78 | 0.0 | 0.0 | 0.00 | 0.01 | 0.00 | 91 | 1018.1 |
| 20260506085544 | 54 | 78 | 0.0 | 0.0 | 0.00 | 0.01 | 0.00 | 91 | 1017.9 |
| 20260506085044 | 54 | 78 | 0.0 | 0.0 | 0.00 | 0.01 | 0.00 | 91 | 1018.0 |
| 20260506084544 | 54 | 78 | 0.0 | 0.0 | 0.00 | 0.01 | 0.00 | 91 | 1017.9 |
| 20260506084043 | 54 | 78 | 0.0 | 0.0 | 0.00 | 0.01 | 0.00 | 91 | 1017.9 |
| 20260506083543 | 54 | 78 | 0.0 | 0.0 | 0.00 | 0.01 | 0.00 | 91 | 1017.9 |
| 20260506083043 | 54 | 78 | 0.0 | 0.0 | 0.00 | 0.01 | 0.00 | 91 | 1017.9 |
| 20260506082542 | 54 | 78 | 0.0 | 0.0 | 0.00 | 0.01 | 0.00 | 91 | 1017.9 |
| 20260506082041 | 54 | 78 | 0.0 | 0.0 | 0.00 | 0.01 | 0.00 | 91 | 1017.9 |
| 20260506081543 | 54 | 78 | 0.0 | 0.0 | 0.00 | 0.01 | 0.00 | 91 | 1017.8 |
| 20260506081041 | 54 | 78 | 0.0 | 0.0 | 0.00 | 0.01 | 0.00 | 91 | 1017.8 |
| 20260506080540 | 54 | 78 | 0.0 | 0.0 | 0.00 | 0.01 | 0.00 | 91 | 1017.7 |
| 20260506073035 | 54 | 78 | 0.0 | 0.0 | 0.00 | 0.01 | 0.00 | 91 | 1017.4 |
| 20260506072535 | 54 | 78 | 0.0 | 0.0 | 0.00 | 0.01 | 0.00 | 91 | 1017.3 |
| 20260506072035 | 54 | 78 | 0.0 | 0.0 | 0.00 | 0.01 | 0.00 | 91 | 1017.2 |
| 20260506071536 | 54 | 78 | 0.0 | 0.0 | 0.00 | 0.01 | 0.00 | 91 | 1017.2 |
| 20260506071033 | 54 | 78 | 0.0 | 2.0 | 0.00 | 0.01 | 0.00 | 91 | 1017.1 |
| 20260506070534 | 54 | 78 | 0.0 | 3.0 | 0.00 | 0.01 | 0.00 | 91 | 1017.1 |
| 20260506062030 | 54 | 78 | 0.0 | 2.0 | 0.00 | 0.01 | 0.01 | 91 | 1017.0 |
| 20260506061531 | 54 | 78 | 1.0 | 3.0 | 0.00 | 0.01 | 0.01 | 91 | 1017.0 |
| 20260506061030 | 53 | 78 | 0.0 | 4.0 | 0.00 | 0.01 | 0.01 | 91 | 1016.9 |
| 20260506060532 | 53 | 77 | 1.0 | 4.0 | 0.00 | 0.01 | 0.01 | 91 | 1016.9 |
| 20260506051030 | 54 | 327 | 0.0 | 0.0 | 0.00 | 0.02 | 0.01 | 92 | 1017.0 |
| 20260506050528 | 54 | 327 | 0.0 | 0.0 | 0.00 | 0.02 | 0.01 | 91 | 1017.0 |
| 20260506045027 | 54 | 327 | 0.0 | 0.0 | 0.00 | 0.02 | 0.01 | 91 | 1016.9 |
| 20260506044531 | 54 | 327 | 0.0 | 0.0 | 0.00 | 0.02 | 0.01 | 91 | 1016.8 |
| 20260506044024 | 54 | 327 | 0.0 | 0.0 | 0.00 | 0.02 | 0.01 | 91 | 1016.7 |
| 20260506043524 | 54 | 327 | 0.0 | 3.0 | 0.00 | 0.02 | 0.01 | 91 | 1016.8 |
| 20260506043026 | 54 | 327 | 0.0 | 3.0 | 0.00 | 0.02 | 0.01 | 91 | 1016.7 |
| 20260506042526 | 54 | 327 | 1.0 | 3.0 | 0.00 | 0.02 | 0.01 | 91 | 1016.7 |
| 20260506042022 | 54 | 327 | 0.0 | 3.0 | 0.00 | 0.02 | 0.01 | 91 | 1016.6 |
| 20260506041523 | 54 | 327 | 1.0 | 3.0 | 0.00 | 0.02 | 0.01 | 91 | 1016.5 |
| 20260506041021 | 54 | 327 | 2.0 | 4.0 | 0.00 | 0.02 | 0.01 | 91 | 1016.5 |
| 20260506040524 | 54 | 327 | 2.0 | 4.0 | 0.00 | 0.02 | 0.01 | 91 | 1016.3 |
| 20260506040021 | 54 | 327 | 1.0 | 3.0 | 0.00 | 0.02 | 0.01 | 91 | 1016.3 |
| 20260506035526 | 54 | 327 | 2.0 | 5.0 | 0.00 | 0.02 | 0.01 | 91 | 1016.4 |
| 20260506035023 | 54 | 327 | 0.0 | 6.0 | 0.00 | 0.02 | 0.01 | 91 | 1016.2 |
| 20260506034522 | 54 | 326 | 4.0 | 6.0 | 0.00 | 0.02 | 0.01 | 91 | 1016.2 |
| 20260506034023 | 54 | 323 | 3.0 | 5.0 | 0.00 | 0.02 | 0.01 | 91 | 1016.1 |
| 20260506033520 | 54 | 324 | 2.0 | 5.0 | 0.00 | 0.02 | 0.01 | 91 | 1016.1 |
| 20260506033031 | 54 | 324 | 3.0 | 8.0 | 0.00 | 0.02 | 0.01 | 91 | 1016.0 |
| 20260506032520 | 54 | 323 | 4.0 | 8.0 | 0.00 | 0.02 | 0.01 | 92 | 1015.9 |
| 20260506032020 | 54 | 325 | 4.0 | 8.0 | 0.00 | 0.02 | 0.01 | 91 | 1015.8 |
| 20260506031530 | 54 | 325 | 5.0 | 8.0 | 0.00 | 0.02 | 0.01 | 92 | 1015.9 |
| 20260506031020 | 54 | 323 | 5.0 | 8.0 | 0.00 | 0.02 | 0.01 | 92 | 1015.8 |
| 20260506030524 | 54 | 338 | 4.0 | 6.0 | 0.00 | 0.02 | 0.01 | 92 | 1015.8 |
| 20260506030042 | 54 | 338 | 4.0 | 6.0 | 0.00 | 0.02 | 0.01 | 92 | 1015.7 |
| 20260506025519 | 54 | 338 | 4.0 | 6.0 | 0.00 | 0.02 | 0.01 | 92 | 1015.7 |
| 20260506025022 | 54 | 338 | 5.0 | 8.0 | 0.00 | 0.02 | 0.01 | 92 | 1015.8 |
| 20260506024526 | 55 | 341 | 4.0 | 8.0 | 0.00 | 0.02 | 0.01 | 92 | 1015.7 |
| 20260506024019 | 55 | 348 | 6.0 | 8.0 | 0.00 | 0.02 | 0.01 | 92 | 1015.7 |
| 20260506023519 | 54 | 334 | 4.0 | 8.0 | 0.00 | 0.02 | 0.01 | 92 | 1015.7 |
| 20260506023019 | 54 | 336 | 5.0 | 8.0 | 0.00 | 0.02 | 0.01 | 92 | 1015.7 |
| 20260506022518 | 54 | 338 | 5.0 | 8.0 | 0.00 | 0.02 | 0.01 | 93 | 1015.6 |
| 20260506022018 | 54 | 330 | 6.0 | 9.0 | 0.00 | 0.02 | 0.01 | 92 | 1015.6 |
| 20260506021520 | 54 | 329 | 7.0 | 9.0 | 0.00 | 0.02 | 0.01 | 92 | 1015.6 |
| 20260506021019 | 54 | 323 | 6.0 | 9.0 | 0.00 | 0.02 | 0.01 | 93 | 1015.6 |
| 20260506020524 | 54 | 331 | 6.0 | 9.0 | 0.00 | 0.02 | 0.01 | 93 | 1015.6 |
| 20260506020018 | 54 | 327 | 6.0 | 8.0 | 0.00 | 0.02 | 0.01 | 93 | 1015.6 |
| 20260506015518 | 54 | 327 | 7.0 | 8.0 | 0.00 | 0.02 | 0.01 | 93 | 1015.7 |